カタログに戻る

DELTA 1 DEB

LostLEO
NORAD 29187·DEBRIS·🇺🇸 United States

打ち上げ Jan 11, 1968 から Vandenberg Space Force Base

Loading…

次のパス (今後24時間)

TLE

古いSource: Space-Track

元期: Aug 7, 2026, 14:51 UTC

1 29187U 68002L   26219.61878652 -.00000007  00000-0  21298-3 0  9999
2 29187 105.8081  11.8134 0295276 140.3644 285.3547 12.91309150608754

AllMySatでDELTA 1 DEBをリアルタイム追跡

Download on the App Store